Location: Coopersdale
(40.3556°N, 78.9372°W)
Time: 19:58:47
(UTC+00:00)

Transit 4A - Pass Details

Date: 27 January 2021
Orbit: 866 x 978 km, 66.8° (Epoch: 26 February)

Event Time Altitude Azimuth Distance (km) Brightness Sun altitude
Rises 08:08:58 0° 333° (NNW) 3,620 - -49.2°
Reaches altitude 10° 08:11:37 10° 338° (NNW) 2,655 - -48.7°
Maximum altitude 08:17:41 57° 56° (ENE) 1,075 - -47.6°
Drops below altitude 10° 08:23:31 10° 135° (SE) 2,563 - -46.6°
Sets 08:26:02 0° 139° (SE) 3,485 - -46.1°
